TimeEDT,TemperatureF,Dew PointF,Humidity,Sea Level PressureIn,VisibilityMPH,Wind Direction,Wind SpeedMPH,Gust SpeedMPH,PrecipitationIn,Events,Conditions,WindDirDegrees,DateUTC
12:53 AM,75.9,71.1,85,29.99,9.0,SW,3.5,-,N/A,,Clear,230,2013-06-27 04:53:00
1:48 AM,75.2,71.6,89,30.02,10.0,SW,9.2,-,N/A,Thunderstorm,Clear,230,2013-06-27 05:48:00
1:53 AM,75.9,71.1,85,29.96,10.0,SW,8.1,-,N/A,Thunderstorm,Clear,230,2013-06-27 05:53:00
2:03 AM,75.2,71.6,89,30.01,10.0,SW,8.1,-,N/A,,Clear,220,2013-06-27 06:03:00
2:53 AM,75.9,71.1,85,29.95,10.0,WSW,8.1,-,N/A,,Clear,240,2013-06-27 06:53:00
3:53 AM,75.0,71.1,87,29.94,10.0,SW,9.2,-,N/A,,Clear,230,2013-06-27 07:53:00
4:53 AM,75.9,70.0,82,29.92,10.0,WSW,10.4,-,N/A,,Partly Cloudy,250,2013-06-27 08:53:00
5:53 AM,75.9,69.1,79,29.93,10.0,West,12.7,-,N/A,,Clear,260,2013-06-27 09:53:00
6:53 AM,75.0,69.1,82,29.91,10.0,West,9.2,-,N/A,,Clear,260,2013-06-27 10:53:00
7:53 AM,77.0,69.1,76,29.93,10.0,West,11.5,19.6,N/A,,Partly Cloudy,270,2013-06-27 11:53:00
8:53 AM,79.0,69.1,72,29.93,10.0,West,9.2,-,N/A,,Clear,260,2013-06-27 12:53:00
9:53 AM,80.1,68.0,67,29.93,10.0,West,16.1,23.0,N/A,,Scattered Clouds,260,2013-06-27 13:53:00
10:11 AM,80.6,68.0,65,29.98,10.0,WNW,13.8,23.0,N/A,,Mostly Cloudy,290,2013-06-27 14:11:00
10:33 AM,80.6,68.0,65,29.97,10.0,WNW,11.5,-,N/A,,Scattered Clouds,290,2013-06-27 14:33:00
10:53 AM,80.1,68.0,67,29.92,10.0,West,9.2,-,N/A,,Scattered Clouds,280,2013-06-27 14:53:00
11:53 AM,81.0,68.0,65,29.93,10.0,West,10.4,18.4,N/A,,Mostly Cloudy,270,2013-06-27 15:53:00
12:53 PM,84.9,68.0,57,29.90,10.0,West,12.7,20.7,N/A,,Partly Cloudy,270,2013-06-27 16:53:00
1:48 PM,82.4,69.8,66,29.95,10.0,West,12.7,20.7,N/A,,Mostly Cloudy,260,2013-06-27 17:48:00
1:53 PM,82.0,69.1,65,29.89,10.0,West,12.7,20.7,N/A,,Mostly Cloudy,270,2013-06-27 17:53:00
2:53 PM,80.1,70.0,71,29.89,10.0,WNW,10.4,16.1,N/A,,Overcast,290,2013-06-27 18:53:00
3:53 PM,81.0,71.1,72,29.87,10.0,West,9.2,-,0.00,,Mostly Cloudy,260,2013-06-27 19:53:00
4:48 PM,84.2,71.6,66,29.89,10.0,WNW,10.4,-,N/A,,Partly Cloudy,290,2013-06-27 20:48:00
4:53 PM,84.9,72.0,65,29.83,10.0,West,9.2,-,N/A,,Scattered Clouds,270,2013-06-27 20:53:00
5:33 PM,84.2,71.6,66,29.88,10.0,West,10.4,-,N/A,,Mostly Cloudy,280,2013-06-27 21:33:00
5:43 PM,84.2,69.8,62,29.87,10.0,West,11.5,17.3,N/A,,Scattered Clouds,280,2013-06-27 21:43:00
5:53 PM,84.9,71.1,63,29.82,10.0,West,13.8,-,N/A,,Partly Cloudy,260,2013-06-27 21:53:00
6:53 PM,84.0,71.1,65,29.82,10.0,West,9.2,-,N/A,,Clear,260,2013-06-27 22:53:00
7:53 PM,82.0,71.1,69,29.84,10.0,West,10.4,-,N/A,,Clear,260,2013-06-27 23:53:00
8:53 PM,81.0,71.1,72,29.83,10.0,West,6.9,-,N/A,,Clear,270,2013-06-28 00:53:00
9:53 PM,80.1,72.0,76,29.83,10.0,West,4.6,-,N/A,,Overcast,280,2013-06-28 01:53:00
10:53 PM,79.0,72.0,79,29.86,10.0,WNW,4.6,-,N/A,,Partly Cloudy,290,2013-06-28 02:53:00
11:53 PM,77.0,72.0,84,29.85,10.0,West,6.9,-,N/A,,Clear,270,2013-06-28 03:53:00